Meteo18 Weather Cam more information Meteo18 Weather Cam


Thunder radar more information blitzortung!


Rain radar more information rain snow radar



Select another period ( hide this area )

Units Period Custom range Directly to
Metric English Both
Daily Weekly Monthly Yearly
use both date-selectors for a custom range
previous Day
With this date

WeatherUnderground graphs for this period ( click here )


Daily Summary for Monday 20 January 2020
Time Temp. ( °C ) Dew pt. ( °C ) Wind ( km/h ) from Gust ( km/h ) Pressure ( hPa ) Humid.( % ) Rainrate ( cm )
High5,5 1,2 35,2 NE ( 2022/4128 ) 45,1 1042,2 89 -
Average2,9 0,1 14,6 NE #116/282 23,2 1041,0 82 -
Low0,9 -1,2 -   1,6 1039,8 69 -
Daily Tabular details for Monday 20 January 2020
Time Temp. ( °C ) Dew pt. ( °C ) Wind ( km/h ) from Gust ( km/h ) Pressure ( hPa ) Humid.( % ) Rainrate ( cm )
00:01 3,1 1,1 13,0 North 27,4 1041,2 87 -
00:05 3,1 1,1 14,3 NE 24,1 1041,5 87 -
00:11 3,2 1,2 13,0 NE 24,1 1041,5 87 -
00:15 3,2 1,1 17,7 NE 20,9 1041,5 86 -
00:21 3,2 1,1 17,7 NE 30,6 1041,5 86 -
00:25 3,1 1,0 24,1 ENE 27,4 1041,5 86 -
00:31 3,2 1,1 14,3 NNE 30,6 1041,5 86 -
00:35 3,1 1,0 16,3 NNE 19,3 1041,5 86 -
00:41 3,1 1,0 13,0 NE 22,5 1041,5 86 -
00:45 3,1 1,0 19,5 NE 24,1 1041,5 86 -
00:51 3,0 0,9 19,5 NE 19,3 1041,2 86 -
00:55 2,9 0,8 17,7 NE 25,7 1041,2 86 -
01:01 2,9 0,8 7,9 NE 25,7 1041,2 86 -
01:05 2,9 0,8 7,9 NE 30,6 1041,5 86 -
01:11 2,9 0,8 19,5 NNE 33,8 1041,5 86 -
01:15 2,8 0,7 16,3 ENE 24,1 1041,5 86 -
01:22 2,7 0,8 11,1 ENE 25,7 1041,5 87 -
01:26 2,7 0,8 17,7 NE 27,4 1041,5 87 -
01:30 2,6 0,7 13,0 NNE 30,6 1041,5 87 -
01:36 2,6 0,7 13,0 NE 30,6 1041,5 87 -
01:40 2,6 0,7 22,7 ENE 25,7 1041,2 87 -
01:45 2,6 0,7 9,7 NNE 27,4 1041,2 87 -
01:51 2,5 0,6 11,1 ENE 29,0 1041,2 87 -
01:55 2,5 0,6 14,3 NE 29,0 1041,5 87 -
02:01 2,6 0,7 16,3 East 27,4 1041,2 87 -
02:06 2,4 0,5 16,3 NE 25,7 1041,2 87 -
02:10 2,4 0,6 19,5 ENE 24,1 1041,2 88 -
02:16 2,3 0,5 22,7 NE 25,7 1041,2 88 -
02:20 2,3 0,5 11,1 NE 19,3 1041,2 88 -
02:26 2,3 0,5 19,5 ENE 25,7 1041,2 88 -
02:30 2,2 0,4 17,7 NE 25,7 1041,2 88 -
02:37 2,2 0,4 19,5 East 22,5 1041,2 88 -
02:41 2,2 0,4 25,9 NE 25,7 1041,2 88 -
02:45 2,2 0,4 14,3 NNE 32,2 1040,9 88 -
02:51 2,2 0,4 14,3 ENE 29,0 1040,9 88 -
02:55 2,2 0,4 16,3 NE 27,4 1041,2 88 -
03:00 2,1 0,3 27,4 ENE 27,4 1040,9 88 -
03:06 2,1 0,3 24,1 NE 25,7 1040,9 88 -
03:10 2,2 0,4 24,1 NE 24,1 1040,9 88 -
03:16 2,2 0,3 20,9 ENE 32,2 1040,9 87 -
03:21 2,2 0,3 19,5 NNE 20,9 1040,9 87 -
03:25 2,2 0,3 25,9 NE 25,7 1040,9 87 -
03:31 2,2 0,3 16,3 NNE 30,6 1040,9 87 -
03:35 2,1 0,2 27,4 NE 30,6 1040,9 87 -
03:40 2,1 0,2 6,4 NE 22,5 1040,9 87 -
03:46 2,0 0,1 19,5 NE 22,5 1040,9 87 -
03:50 2,0 0,1 7,9 NE 29,0 1040,9 87 -
03:56 2,1 0,2 19,5 NE 32,2 1040,5 87 -
04:01 2,1 0,2 13,0 NE 33,8 1040,9 87 -
04:05 2,1 0,2 13,0 North 32,2 1040,9 87 -
04:11 2,0 0,1 22,7 NE 25,7 1040,9 87 -
04:15 2,0 0,1 19,5 NE 25,7 1040,9 87 -
04:22 1,9 0,0 11,1 ESE 29,0 1040,9 87 -
04:26 1,9 0,0 13,0 NE 30,6 1040,9 87 -
04:30 1,9 0,0 20,9 ENE 22,5 1040,9 87 -
04:36 1,9 0,0 17,7 NE 32,2 1040,9 87 -
04:40 1,8 -0,1 14,3 NE 27,4 1040,9 87 -
04:45 1,8 -0,1 19,5 NE 32,2 1040,9 87 -
04:51 1,8 -0,1 16,3 NNE 35,4 1040,9 87 -
04:55 1,8 -0,1 16,3 NE 29,0 1040,9 87 -
05:01 1,8 -0,1 24,1 ENE 24,1 1040,9 87 -
05:06 1,8 -0,1 24,1 NE 29,0 1040,9 87 -
05:10 1,8 -0,3 22,7 NE 35,4 1040,9 86 -
05:16 1,8 -0,3 19,5 NE 30,6 1040,9 86 -
05:20 1,8 -0,3 19,5 NE 25,7 1040,9 86 -
05:25 1,7 -0,4 17,7 NE 29,0 1040,9 86 -
05:31 1,8 -0,3 20,9 North 27,4 1040,9 86 -
05:35 1,8 -0,3 19,5 ENE 29,0 1040,9 86 -
05:41 1,7 -0,4 19,5 ENE 22,5 1040,9 86 -
05:46 1,7 -0,4 14,3 NNE 32,2 1040,9 86 -
05:50 1,7 -0,4 20,9 ENE 25,7 1040,9 86 -
05:56 1,7 -0,4 27,4 NE 30,6 1040,9 86 -
06:00 1,8 -0,3 30,6 ENE 30,6 1040,9 86 -
06:07 1,8 -0,3 9,7 NNE 32,2 1041,2 86 -
06:11 1,8 -0,3 22,7 NNE 25,7 1041,2 86 -
06:15 1,7 -0,4 27,4 NE 37,0 1041,2 86 -
06:21 1,7 -0,4 19,5 NE 29,0 1040,9 86 -
06:25 1,7 -0,2 17,7 NE 22,5 1041,2 87 -
06:31 1,6 -0,3 14,3 North 29,0 1041,2 87 -
06:35 1,6 -0,3 17,7 NNE 27,4 1041,2 87 -
06:41 1,6 -0,3 19,5 NE 24,1 1041,2 87 -
06:45 1,6 -0,3 13,0 NNE 25,7 1041,2 87 -
06:51 1,6 -0,3 20,9 NE 27,4 1041,2 87 -
06:56 1,6 -0,3 19,5 NE 29,0 1041,5 87 -
07:00 1,5 -0,3 17,7 NE 24,1 1041,2 88 -
07:06 1,5 -0,3 20,9 ENE 25,7 1041,2 88 -
07:10 1,4 -0,4 16,3 NE 27,4 1041,5 88 -
07:15 1,5 -0,3 9,7 NE 25,7 1041,2 88 -
07:21 1,4 -0,4 16,3 ENE 27,4 1041,2 88 -
07:25 1,4 -0,4 30,6 NE 30,6 1041,2 88 -
07:31 1,4 -0,4 13,0 NNE 19,3 1041,2 88 -
07:36 1,4 -0,4 6,4 ENE 25,7 1041,5 88 -
07:40 1,4 -0,4 17,7 NE 25,7 1041,5 88 -
07:46 1,4 -0,4 25,9 North 27,4 1041,5 88 -
07:50 1,4 -0,4 7,9 ENE 25,7 1041,5 88 -
07:55 1,3 -0,5 11,1 ENE 32,2 1041,5 88 -
08:01 1,3 -0,3 11,1 NE 24,1 1041,5 89 -
08:05 1,3 -0,3 7,9 ENE 24,1 1041,5 89 -
08:11 1,2 -0,4 13,0 ENE 24,1 1041,5 89 -
08:15 1,2 -0,4 14,3 NE 24,1 1041,5 89 -
08:21 1,3 -0,3 11,1 ENE 32,2 1041,5 89 -
08:25 1,3 -0,3 27,4 NE 30,6 1041,5 89 -
08:31 1,3 -0,5 20,9 NE 25,7 1041,5 88 -
08:36 1,3 -0,5 17,7 ENE 22,5 1041,9 88 -
08:40 1,3 -0,5 9,7 NE 20,9 1041,9 88 -
08:46 1,4 -0,4 14,3 NNE 33,8 1041,9 88 -
08:50 1,4 -0,4 17,7 NE 25,7 1041,9 88 -
08:56 1,4 -0,4 7,9 North 27,4 1041,9 88 -
09:00 1,4 -0,5 20,9 NE 32,2 1041,9 87 -
09:06 1,5 -0,4 20,9 ENE 29,0 1041,9 87 -
09:10 1,6 -0,3 22,7 NNE 33,8 1041,9 87 -
09:16 1,6 -0,5 17,7 ENE 25,7 1041,9 86 -
09:20 1,6 -0,5 22,7 NE 32,2 1041,9 86 -
09:26 1,7 -0,4 19,5 ENE 24,1 1041,9 86 -
09:30 1,8 -0,5 17,7 ENE 40,2 1041,9 85 -
09:36 1,8 -0,5 11,1 NNE 25,7 1041,9 85 -
09:40 1,9 -0,4 25,9 ENE 25,7 1041,9 85 -
09:46 1,9 -0,5 25,9 ENE 27,4 1042,2 84 -
09:50 2,0 -0,4 22,7 NE 30,6 1042,2 84 -
09:56 2,2 -0,4 17,7 NE 24,1 1041,9 83 -
10:00 2,2 -0,4 25,9 ENE 30,6 1041,9 83 -
10:06 2,3 -0,3 20,9 NE 37,0 1041,9 83 -
10:10 2,4 -0,4 20,9 NE 35,4 1041,9 82 -
10:16 2,4 -0,4 22,7 NE 38,6 1041,9 82 -
10:20 2,5 -0,3 30,6 NE 33,8 1041,9 82 -
10:26 2,6 -0,2 27,4 ENE 27,4 1041,9 82 -
10:30 2,6 -0,2 25,9 East 43,4 1041,9 82 -
10:36 2,7 -0,1 17,7 NE 30,6 1041,9 82 -
10:40 2,7 -0,1 17,7 ENE 32,2 1041,9 82 -
10:46 2,8 0,0 9,7 NE 22,5 1042,2 82 -
10:50 2,9 0,1 20,9 NE 33,8 1042,2 82 -
10:56 2,9 0,1 19,5 NE 38,6 1042,2 82 -
11:00 2,9 0,0 25,9 NE 30,6 1042,2 81 -
11:06 3,1 0,3 24,1 ENE 27,4 1042,2 82 -
11:10 3,2 0,4 13,0 NE 29,0 1042,2 82 -
11:15 3,2 0,4 13,0 ENE 17,7 1042,2 82 -
11:21 3,4 0,4 11,1 NNE 25,7 1042,2 81 -
11:25 3,4 0,4 20,9 East 25,7 1042,2 81 -
11:31 3,6 0,5 20,9 ENE 24,1 1042,2 80 -
11:36 3,6 0,5 22,7 ENE 22,5 1042,2 80 -
11:40 3,7 0,6 16,3 NE 20,9 1042,2 80 -
11:46 3,8 0,5 22,7 NE 22,5 1042,2 79 -
11:50 3,8 0,7 3,2 NE 27,4 1042,2 80 -
11:57 3,9 0,4 14,3 ENE 29,0 1042,2 78 -
12:01 4,0 0,5 22,7 NE 24,1 1042,2 78 -
12:05 4,1 0,8 19,5 NNE 20,9 1042,2 79 -
12:11 4,2 0,5 19,5 ESE 20,9 1042,2 77 -
12:15 4,3 0,6 14,3 NNE 17,7 1042,2 77 -
12:20 4,3 0,4 14,3 NE 24,1 1042,2 76 -
12:26 4,4 0,5 20,9 ENE 29,0 1041,9 76 -
12:30 4,5 0,5 16,3 NE 30,6 1041,9 75 -
12:36 4,5 0,5 19,5 ENE 24,1 1041,9 75 -
12:41 4,6 0,6 25,9 ENE 32,2 1041,5 75 -
12:45 4,6 0,6 30,6 ENE 32,2 1041,5 75 -
12:51 4,6 0,6 27,4 East 27,4 1041,5 75 -
12:55 4,6 0,2 17,7 NE 40,2 1041,5 73 -
13:00 4,6 0,4 17,7 NE 32,2 1041,2 74 -
13:06 4,6 0,4 30,6 NNE 33,8 1041,2 74 -
13:10 4,6 0,0 27,4 ENE 43,4 1041,2 72 -
13:16 4,7 0,5 27,4 NE 33,8 1040,9 74 -
13:21 4,8 0,7 25,9 NE 27,4 1040,9 75 -
13:25 4,8 0,6 25,9 NNE 33,8 1040,9 74 -
13:31 4,8 0,4 17,7 NE 35,4 1040,9 73 -
13:35 4,8 0,6 24,1 ENE 35,4 1040,9 74 -
13:42 4,9 0,7 13,0 NNE 30,6 1040,9 74 -
13:46 4,9 0,3 17,7 NE 33,8 1040,9 72 -
13:50 5,0 0,6 20,9 NE 30,6 1040,9 73 -
13:56 5,1 0,5 20,9 East 30,6 1040,9 72 -
14:00 4,9 0,3 14,3 NE 45,1 1040,5 72 -
14:05 5,1 0,5 27,4 ENE 33,8 1040,5 72 -
14:11 5,1 0,5 35,2 NE 38,6 1040,5 72 -
14:15 5,1 0,3 25,9 ENE 37,0 1040,5 71 -
14:21 5,1 0,3 19,5 NNE 35,4 1040,5 71 -
14:26 5,3 0,7 16,3 NNW 38,6 1040,5 72 -
14:30 5,2 0,4 22,7 NE 37,0 1040,5 71 -
14:36 5,3 0,7 11,1 NE 29,0 1040,5 72 -
14:40 5,4 0,6 16,3 East 24,1 1040,5 71 -
14:45 5,4 0,6 22,7 North 33,8 1040,5 71 -
14:51 5,3 0,3 32,0 NE 35,4 1040,5 70 -
14:55 5,3 0,3 11,1 NNE 32,2 1040,5 70 -
15:01 5,4 0,4 30,6 ENE 35,4 1040,5 70 -
15:06 5,4 0,4 13,0 NNE 30,6 1040,5 70 -
15:10 5,3 0,5 20,9 NE 27,4 1040,5 71 -
15:16 5,4 0,4 16,3 ENE 29,0 1040,5 70 -
15:20 5,4 0,4 13,0 ENE 27,4 1040,5 70 -
15:26 5,4 0,4 13,0 NE 24,1 1040,5 70 -
15:30 5,4 0,4 9,7 NNE 25,7 1040,2 70 -
15:36 5,5 0,5 25,9 ENE 32,2 1040,2 70 -
15:41 5,5 0,5 16,3 NE 29,0 1040,2 70 -
15:45 5,4 0,4 19,5 NE 32,2 1040,2 70 -
15:51 5,5 0,7 20,9 NE 22,5 1040,2 71 -
15:55 5,5 0,5 14,3 NE 27,4 1040,2 70 -
16:00 5,4 0,2 14,3 ENE 33,8 1039,8 69 -
16:06 5,5 0,5 17,7 NE 25,7 1040,2 70 -
16:10 5,4 0,6 25,9 NNE 25,7 1040,2 71 -
16:16 5,4 0,6 19,5 NE 30,6 1040,2 71 -
16:20 5,4 0,8 17,7 NE 24,1 1040,2 72 -
16:26 5,3 0,7 6,4 NNE 17,7 1040,2 72 -
16:31 5,3 0,7 9,7 ENE 22,5 1040,2 72 -
16:35 5,2 0,8 17,7 NE 22,5 1040,2 73 -
16:41 5,1 0,7 20,9 NE 25,7 1040,2 73 -
16:45 5,1 0,7 19,5 East 27,4 1040,2 73 -
16:52 5,0 0,8 17,7 ENE 20,9 1040,2 74 -
16:56 4,9 0,5 24,1 NE 37,0 1040,2 73 -
17:00 4,8 0,6 17,7 NE 25,7 1040,2 74 -
17:06 4,7 0,5 16,3 ENE 27,4 1040,2 74 -
17:11 4,6 0,6 6,4 NNW 19,3 1040,2 75 -
17:15 4,5 0,5 13,0 NE 14,5 1040,2 75 -
17:21 4,3 0,4 1,4 North 8,0 1040,5 76 -
17:25 4,3 0,4 6,4 NE 16,1 1040,5 76 -
17:31 4,2 0,5 7,9 North 11,3 1040,5 77 -
17:35 4,2 0,5 13,0 NE 12,9 1040,5 77 -
17:41 4,1 0,4 6,4 ENE 12,9 1040,5 77 -
17:46 4,1 0,4 3,2 East 17,7 1040,5 77 -
17:50 4,1 0,4 9,7 North 17,7 1040,5 77 -
17:56 4,0 0,3 13,0 North 12,9 1040,5 77 -
18:00 3,9 0,4 4,7 NNW 9,7 1040,5 78 -
18:06 3,8 0,3 4,7 NNE 14,5 1040,5 78 -
18:10 3,7 0,2 4,7 NNW 8,0 1040,5 78 -
18:16 3,4 0,1 1,4 NNW 6,4 1040,5 79 -
18:20 3,3 0,0 1,4 NNW 4,8 1040,5 79 -
18:26 3,2 0,1 1,4 NW 4,8 1040,5 80 -
18:30 3,2 0,1 1,4 NNW 4,8 1040,5 80 -
18:36 2,9 0,0 1,4 NW 3,2 1040,9 81 -
18:40 2,8 -0,1 1,4 NW 3,2 1040,9 81 -
18:46 2,8 -0,1 1,4 NNW 3,2 1040,9 81 -
18:50 2,9 0,0 6,4 NE 6,4 1040,9 81 -
18:57 2,8 -0,1 1,4 NNW 3,2 1040,9 81 -
19:01 2,9 0,0   Calm 4,8 1040,9 81 -
19:05 2,8 -0,1 1,4 NNW 4,8 1040,9 81 -
19:11 2,7 -0,1 3,2 NNW 3,2 1040,9 82 -
19:15 2,6 -0,2 3,2 NNW 3,2 1040,9 82 -
19:21 2,5 -0,3   Calm 1,6 1040,9 82 -
19:25 2,4 -0,4 4,7 North 6,4 1040,5 82 -
19:31 2,3 -0,3 4,7 North 11,3 1040,5 83 -
19:35 2,3 -0,3 3,2 North 8,0 1040,5 83 -
19:41 2,4 -0,2 6,4 North 17,7 1040,5 83 -
19:45 2,6 -0,2 3,2 North 8,0 1040,5 82 -
19:51 2,4 -0,4 1,4 North 4,8 1040,9 82 -
19:55 2,3 -0,3   Calm 3,2 1040,9 83 -
20:01 2,2 -0,4 3,2 NNE 6,4 1040,5 83 -
20:05 2,2 -0,2   Calm 6,4 1040,5 84 -
20:11 2,1 -0,3 4,7 East 6,4 1040,5 84 -
20:15 2,3 -0,1 13,0 NNE 14,5 1040,5 84 -
20:21 2,6 0,0 16,3 NE 19,3 1040,5 83 -
20:25 2,7 -0,1 4,7 NNE 17,7 1040,5 82 -
20:31 2,7 -0,1 3,2 NE 12,9 1040,5 82 -
20:35 2,7 -0,1 9,7 NNE 16,1 1040,5 82 -
20:41 2,6 -0,2 4,7 North 12,9 1040,5 82 -
20:45 2,5 -0,3 11,1 NE 12,9 1040,5 82 -
20:51 2,4 -0,2 3,2 ENE 8,0 1040,5 83 -
20:56 2,3 -0,3 3,2 North 11,3 1040,5 83 -
21:00 2,2 -0,4 4,7 NE 16,1 1040,5 83 -
21:06 2,2 -0,4 1,4 NNE 11,3 1040,5 83 -
21:10 2,1 -0,5 13,0 NNE 12,9 1040,5 83 -
21:16 2,1 -0,3 6,4 NNE 9,7 1040,5 84 -
21:20 2,0 -0,4 4,7 NNW 14,5 1040,2 84 -
21:26 1,9 -0,5 3,2 ENE 8,0 1040,2 84 -
21:31 1,8 -0,6 6,4 NE 6,4 1040,5 84 -
21:35 1,8 -0,6 3,2 NNE 9,7 1040,5 84 -
21:41 1,7 -0,7 1,4 North 6,4 1040,5 84 -
21:45 1,7 -0,7 1,4 NNE 6,4 1040,2 84 -
21:50 1,6 -0,8 3,2 NNW 4,8 1040,2 84 -
21:56 1,6 -0,6 1,4 NE 6,4 1040,2 85 -
22:00 1,5 -0,7 3,2 NNE 9,7 1040,2 85 -
22:06 1,4 -0,8   Calm 1,6 1040,2 85 -
22:11 1,4 -0,8 6,4 ENE 9,7 1040,2 85 -
22:15 1,5 -0,7 1,4 North 8,0 1039,8 85 -
22:21 1,4 -0,8 1,4 North 6,4 1039,8 85 -
22:25 1,4 -0,8 3,2 North 6,4 1039,8 85 -
22:32 1,3 -0,9 1,4 ENE 8,0 1039,8 85 -
22:36 1,3 -0,9 1,4 NNE 6,4 1039,8 85 -
22:40 1,2 -1,0 1,4 NNE 4,8 1039,8 85 -
22:46 1,3 -0,8 3,2 NE 9,7 1039,8 86 -
22:50 1,2 -1,0   Calm 8,0 1039,8 85 -
22:55 1,2 -1,0 3,2 ENE 6,4 1039,8 85 -
23:01 1,2 -1,0 1,4 North 8,0 1040,2 85 -
23:05 1,1 -1,0 1,4 NNW 6,4 1040,2 86 -
23:11 1,1 -1,0 7,9 NE 8,0 1040,2 86 -
23:16 1,1 -1,0 3,2 NNE 8,0 1040,2 86 -
23:20 1,1 -1,0 4,7 North 9,7 1040,2 86 -
23:26 0,9 -1,2 4,7 NE 9,7 1040,2 86 -
Daily Summary for Monday 20 January 2020
Time Temp. ( °C ) Dew pt. ( °C ) Wind ( km/h ) from Gust ( km/h ) Pressure ( hPa ) Humid.( % ) Rainrate ( cm )
High5,5 1,2 35,2 NE ( 2022/4128 ) 45,1 1042,2 89 -
Average2,9 0,1 14,6 NE #116/282 23,2 1041,0 82 -
Low0,9 -1,2 -   1,6 1039,8 69 -
Daily Tabular details for Monday 20 January 2020
Time Temp. ( °C ) Dew pt. ( °C ) Wind ( km/h ) from Gust ( km/h ) Pressure ( hPa ) Humid.( % ) Rainrate ( cm )
00:01 3,1 1,1 13,0 North 27,4 1041,2 87 -
00:05 3,1 1,1 14,3 NE 24,1 1041,5 87 -
00:11 3,2 1,2 13,0 NE 24,1 1041,5 87 -
00:15 3,2 1,1 17,7 NE 20,9 1041,5 86 -
00:21 3,2 1,1 17,7 NE 30,6 1041,5 86 -
00:25 3,1 1,0 24,1 ENE 27,4 1041,5 86 -
00:31 3,2 1,1 14,3 NNE 30,6 1041,5 86 -
00:35 3,1 1,0 16,3 NNE 19,3 1041,5 86 -
00:41 3,1 1,0 13,0 NE 22,5 1041,5 86 -
00:45 3,1 1,0 19,5 NE 24,1 1041,5 86 -
00:51 3,0 0,9 19,5 NE 19,3 1041,2 86 -
00:55 2,9 0,8 17,7 NE 25,7 1041,2 86 -
01:01 2,9 0,8 7,9 NE 25,7 1041,2 86 -
01:05 2,9 0,8 7,9 NE 30,6 1041,5 86 -
01:11 2,9 0,8 19,5 NNE 33,8 1041,5 86 -
01:15 2,8 0,7 16,3 ENE 24,1 1041,5 86 -
01:22 2,7 0,8 11,1 ENE 25,7 1041,5 87 -
01:26 2,7 0,8 17,7 NE 27,4 1041,5 87 -
01:30 2,6 0,7 13,0 NNE 30,6 1041,5 87 -
01:36 2,6 0,7 13,0 NE 30,6 1041,5 87 -
01:40 2,6 0,7 22,7 ENE 25,7 1041,2 87 -
01:45 2,6 0,7 9,7 NNE 27,4 1041,2 87 -
01:51 2,5 0,6 11,1 ENE 29,0 1041,2 87 -
01:55 2,5 0,6 14,3 NE 29,0 1041,5 87 -
02:01 2,6 0,7 16,3 East 27,4 1041,2 87 -
02:06 2,4 0,5 16,3 NE 25,7 1041,2 87 -
02:10 2,4 0,6 19,5 ENE 24,1 1041,2 88 -
02:16 2,3 0,5 22,7 NE 25,7 1041,2 88 -
02:20 2,3 0,5 11,1 NE 19,3 1041,2 88 -
02:26 2,3 0,5 19,5 ENE 25,7 1041,2 88 -
02:30 2,2 0,4 17,7 NE 25,7 1041,2 88 -
02:37 2,2 0,4 19,5 East 22,5 1041,2 88 -
02:41 2,2 0,4 25,9 NE 25,7 1041,2 88 -
02:45 2,2 0,4 14,3 NNE 32,2 1040,9 88 -
02:51 2,2 0,4 14,3 ENE 29,0 1040,9 88 -
02:55 2,2 0,4 16,3 NE 27,4 1041,2 88 -
03:00 2,1 0,3 27,4 ENE 27,4 1040,9 88 -
03:06 2,1 0,3 24,1 NE 25,7 1040,9 88 -
03:10 2,2 0,4 24,1 NE 24,1 1040,9 88 -
03:16 2,2 0,3 20,9 ENE 32,2 1040,9 87 -
03:21 2,2 0,3 19,5 NNE 20,9 1040,9 87 -
03:25 2,2 0,3 25,9 NE 25,7 1040,9 87 -
03:31 2,2 0,3 16,3 NNE 30,6 1040,9 87 -
03:35 2,1 0,2 27,4 NE 30,6 1040,9 87 -
03:40 2,1 0,2 6,4 NE 22,5 1040,9 87 -
03:46 2,0 0,1 19,5 NE 22,5 1040,9 87 -
03:50 2,0 0,1 7,9 NE 29,0 1040,9 87 -
03:56 2,1 0,2 19,5 NE 32,2 1040,5 87 -
04:01 2,1 0,2 13,0 NE 33,8 1040,9 87 -
04:05 2,1 0,2 13,0 North 32,2 1040,9 87 -
04:11 2,0 0,1 22,7 NE 25,7 1040,9 87 -
04:15 2,0 0,1 19,5 NE 25,7 1040,9 87 -
04:22 1,9 0,0 11,1 ESE 29,0 1040,9 87 -
04:26 1,9 0,0 13,0 NE 30,6 1040,9 87 -
04:30 1,9 0,0 20,9 ENE 22,5 1040,9 87 -
04:36 1,9 0,0 17,7 NE 32,2 1040,9 87 -
04:40 1,8 -0,1 14,3 NE 27,4 1040,9 87 -
04:45 1,8 -0,1 19,5 NE 32,2 1040,9 87 -
04:51 1,8 -0,1 16,3 NNE 35,4 1040,9 87 -
04:55 1,8 -0,1 16,3 NE 29,0 1040,9 87 -
05:01 1,8 -0,1 24,1 ENE 24,1 1040,9 87 -
05:06 1,8 -0,1 24,1 NE 29,0 1040,9 87 -
05:10 1,8 -0,3 22,7 NE 35,4 1040,9 86 -
05:16 1,8 -0,3 19,5 NE 30,6 1040,9 86 -
05:20 1,8 -0,3 19,5 NE 25,7 1040,9 86 -
05:25 1,7 -0,4 17,7 NE 29,0 1040,9 86 -
05:31 1,8 -0,3 20,9 North 27,4 1040,9 86 -
05:35 1,8 -0,3 19,5 ENE 29,0 1040,9 86 -
05:41 1,7 -0,4 19,5 ENE 22,5 1040,9 86 -
05:46 1,7 -0,4 14,3 NNE 32,2 1040,9 86 -
05:50 1,7 -0,4 20,9 ENE 25,7 1040,9 86 -
05:56 1,7 -0,4 27,4 NE 30,6 1040,9 86 -
06:00 1,8 -0,3 30,6 ENE 30,6 1040,9 86 -
06:07 1,8 -0,3 9,7 NNE 32,2 1041,2 86 -
06:11 1,8 -0,3 22,7 NNE 25,7 1041,2 86 -
06:15 1,7 -0,4 27,4 NE 37,0 1041,2 86 -
06:21 1,7 -0,4 19,5 NE 29,0 1040,9 86 -
06:25 1,7 -0,2 17,7 NE 22,5 1041,2 87 -
06:31 1,6 -0,3 14,3 North 29,0 1041,2 87 -
06:35 1,6 -0,3 17,7 NNE 27,4 1041,2 87 -
06:41 1,6 -0,3 19,5 NE 24,1 1041,2 87 -
06:45 1,6 -0,3 13,0 NNE 25,7 1041,2 87 -
06:51 1,6 -0,3 20,9 NE 27,4 1041,2 87 -
06:56 1,6 -0,3 19,5 NE 29,0 1041,5 87 -
07:00 1,5 -0,3 17,7 NE 24,1 1041,2 88 -
07:06 1,5 -0,3 20,9 ENE 25,7 1041,2 88 -
07:10 1,4 -0,4 16,3 NE 27,4 1041,5 88 -
07:15 1,5 -0,3 9,7 NE 25,7 1041,2 88 -
07:21 1,4 -0,4 16,3 ENE 27,4 1041,2 88 -
07:25 1,4 -0,4 30,6 NE 30,6 1041,2 88 -
07:31 1,4 -0,4 13,0 NNE 19,3 1041,2 88 -
07:36 1,4 -0,4 6,4 ENE 25,7 1041,5 88 -
07:40 1,4 -0,4 17,7 NE 25,7 1041,5 88 -
07:46 1,4 -0,4 25,9 North 27,4 1041,5 88 -
07:50 1,4 -0,4 7,9 ENE 25,7 1041,5 88 -
07:55 1,3 -0,5 11,1 ENE 32,2 1041,5 88 -
08:01 1,3 -0,3 11,1 NE 24,1 1041,5 89 -
08:05 1,3 -0,3 7,9 ENE 24,1 1041,5 89 -
08:11 1,2 -0,4 13,0 ENE 24,1 1041,5 89 -
08:15 1,2 -0,4 14,3 NE 24,1 1041,5 89 -
08:21 1,3 -0,3 11,1 ENE 32,2 1041,5 89 -
08:25 1,3 -0,3 27,4 NE 30,6 1041,5 89 -
08:31 1,3 -0,5 20,9 NE 25,7 1041,5 88 -
08:36 1,3 -0,5 17,7 ENE 22,5 1041,9 88 -
08:40 1,3 -0,5 9,7 NE 20,9 1041,9 88 -
08:46 1,4 -0,4 14,3 NNE 33,8 1041,9 88 -
08:50 1,4 -0,4 17,7 NE 25,7 1041,9 88 -
08:56 1,4 -0,4 7,9 North 27,4 1041,9 88 -
09:00 1,4 -0,5 20,9 NE 32,2 1041,9 87 -
09:06 1,5 -0,4 20,9 ENE 29,0 1041,9 87 -
09:10 1,6 -0,3 22,7 NNE 33,8 1041,9 87 -
09:16 1,6 -0,5 17,7 ENE 25,7 1041,9 86 -
09:20 1,6 -0,5 22,7 NE 32,2 1041,9 86 -
09:26 1,7 -0,4 19,5 ENE 24,1 1041,9 86 -
09:30 1,8 -0,5 17,7 ENE 40,2 1041,9 85 -
09:36 1,8 -0,5 11,1 NNE 25,7 1041,9 85 -
09:40 1,9 -0,4 25,9 ENE 25,7 1041,9 85 -
09:46 1,9 -0,5 25,9 ENE 27,4 1042,2 84 -
09:50 2,0 -0,4 22,7 NE 30,6 1042,2 84 -
09:56 2,2 -0,4 17,7 NE 24,1 1041,9 83 -
10:00 2,2 -0,4 25,9 ENE 30,6 1041,9 83 -
10:06 2,3 -0,3 20,9 NE 37,0 1041,9 83 -
10:10 2,4 -0,4 20,9 NE 35,4 1041,9 82 -
10:16 2,4 -0,4 22,7 NE 38,6 1041,9 82 -
10:20 2,5 -0,3 30,6 NE 33,8 1041,9 82 -
10:26 2,6 -0,2 27,4 ENE 27,4 1041,9 82 -
10:30 2,6 -0,2 25,9 East 43,4 1041,9 82 -
10:36 2,7 -0,1 17,7 NE 30,6 1041,9 82 -
10:40 2,7 -0,1 17,7 ENE 32,2 1041,9 82 -
10:46 2,8 0,0 9,7 NE 22,5 1042,2 82 -
10:50 2,9 0,1 20,9 NE 33,8 1042,2 82 -
10:56 2,9 0,1 19,5 NE 38,6 1042,2 82 -
11:00 2,9 0,0 25,9 NE 30,6 1042,2 81 -
11:06 3,1 0,3 24,1 ENE 27,4 1042,2 82 -
11:10 3,2 0,4 13,0 NE 29,0 1042,2 82 -
11:15 3,2 0,4 13,0 ENE 17,7 1042,2 82 -
11:21 3,4 0,4 11,1 NNE 25,7 1042,2 81 -
11:25 3,4 0,4 20,9 East 25,7 1042,2 81 -
11:31 3,6 0,5 20,9 ENE 24,1 1042,2 80 -
11:36 3,6 0,5 22,7 ENE 22,5 1042,2 80 -
11:40 3,7 0,6 16,3 NE 20,9 1042,2 80 -
11:46 3,8 0,5 22,7 NE 22,5 1042,2 79 -
11:50 3,8 0,7 3,2 NE 27,4 1042,2 80 -
11:57 3,9 0,4 14,3 ENE 29,0 1042,2 78 -
12:01 4,0 0,5 22,7 NE 24,1 1042,2 78 -
12:05 4,1 0,8 19,5 NNE 20,9 1042,2 79 -
12:11 4,2 0,5 19,5 ESE 20,9 1042,2 77 -
12:15 4,3 0,6 14,3 NNE 17,7 1042,2 77 -
12:20 4,3 0,4 14,3 NE 24,1 1042,2 76 -
12:26 4,4 0,5 20,9 ENE 29,0 1041,9 76 -
12:30 4,5 0,5 16,3 NE 30,6 1041,9 75 -
12:36 4,5 0,5 19,5 ENE 24,1 1041,9 75 -
12:41 4,6 0,6 25,9 ENE 32,2 1041,5 75 -
12:45 4,6 0,6 30,6 ENE 32,2 1041,5 75 -
12:51 4,6 0,6 27,4 East 27,4 1041,5 75 -
12:55 4,6 0,2 17,7 NE 40,2 1041,5 73 -
13:00 4,6 0,4 17,7 NE 32,2 1041,2 74 -
13:06 4,6 0,4 30,6 NNE 33,8 1041,2 74 -
13:10 4,6 0,0 27,4 ENE 43,4 1041,2 72 -
13:16 4,7 0,5 27,4 NE 33,8 1040,9 74 -
13:21 4,8 0,7 25,9 NE 27,4 1040,9 75 -
13:25 4,8 0,6 25,9 NNE 33,8 1040,9 74 -
13:31 4,8 0,4 17,7 NE 35,4 1040,9 73 -
13:35 4,8 0,6 24,1 ENE 35,4 1040,9 74 -
13:42 4,9 0,7 13,0 NNE 30,6 1040,9 74 -
13:46 4,9 0,3 17,7 NE 33,8 1040,9 72 -
13:50 5,0 0,6 20,9 NE 30,6 1040,9 73 -
13:56 5,1 0,5 20,9 East 30,6 1040,9 72 -
14:00 4,9 0,3 14,3 NE 45,1 1040,5 72 -
14:05 5,1 0,5 27,4 ENE 33,8 1040,5 72 -
14:11 5,1 0,5 35,2 NE 38,6 1040,5 72 -
14:15 5,1 0,3 25,9 ENE 37,0 1040,5 71 -
14:21 5,1 0,3 19,5 NNE 35,4 1040,5 71 -
14:26 5,3 0,7 16,3 NNW 38,6 1040,5 72 -
14:30 5,2 0,4 22,7 NE 37,0 1040,5 71 -
14:36 5,3 0,7 11,1 NE 29,0 1040,5 72 -
14:40 5,4 0,6 16,3 East 24,1 1040,5 71 -
14:45 5,4 0,6 22,7 North 33,8 1040,5 71 -
14:51 5,3 0,3 32,0 NE 35,4 1040,5 70 -
14:55 5,3 0,3 11,1 NNE 32,2 1040,5 70 -
15:01 5,4 0,4 30,6 ENE 35,4 1040,5 70 -
15:06 5,4 0,4 13,0 NNE 30,6 1040,5 70 -
15:10 5,3 0,5 20,9 NE 27,4 1040,5 71 -
15:16 5,4 0,4 16,3 ENE 29,0 1040,5 70 -
15:20 5,4 0,4 13,0 ENE 27,4 1040,5 70 -
15:26 5,4 0,4 13,0 NE 24,1 1040,5 70 -
15:30 5,4 0,4 9,7 NNE 25,7 1040,2 70 -
15:36 5,5 0,5 25,9 ENE 32,2 1040,2 70 -
15:41 5,5 0,5 16,3 NE 29,0 1040,2 70 -
15:45 5,4 0,4 19,5 NE 32,2 1040,2 70 -
15:51 5,5 0,7 20,9 NE 22,5 1040,2 71 -
15:55 5,5 0,5 14,3 NE 27,4 1040,2 70 -
16:00 5,4 0,2 14,3 ENE 33,8 1039,8 69 -
16:06 5,5 0,5 17,7 NE 25,7 1040,2 70 -
16:10 5,4 0,6 25,9 NNE 25,7 1040,2 71 -
16:16 5,4 0,6 19,5 NE 30,6 1040,2 71 -
16:20 5,4 0,8 17,7 NE 24,1 1040,2 72 -
16:26 5,3 0,7 6,4 NNE 17,7 1040,2 72 -
16:31 5,3 0,7 9,7 ENE 22,5 1040,2 72 -
16:35 5,2 0,8 17,7 NE 22,5 1040,2 73 -
16:41 5,1 0,7 20,9 NE 25,7 1040,2 73 -
16:45 5,1 0,7 19,5 East 27,4 1040,2 73 -
16:52 5,0 0,8 17,7 ENE 20,9 1040,2 74 -
16:56 4,9 0,5 24,1 NE 37,0 1040,2 73 -
17:00 4,8 0,6 17,7 NE 25,7 1040,2 74 -
17:06 4,7 0,5 16,3 ENE 27,4 1040,2 74 -
17:11 4,6 0,6 6,4 NNW 19,3 1040,2 75 -
17:15 4,5 0,5 13,0 NE 14,5 1040,2 75 -
17:21 4,3 0,4 1,4 North 8,0 1040,5 76 -
17:25 4,3 0,4 6,4 NE 16,1 1040,5 76 -
17:31 4,2 0,5 7,9 North 11,3 1040,5 77 -
17:35 4,2 0,5 13,0 NE 12,9 1040,5 77 -
17:41 4,1 0,4 6,4 ENE 12,9 1040,5 77 -
17:46 4,1 0,4 3,2 East 17,7 1040,5 77 -
17:50 4,1 0,4 9,7 North 17,7 1040,5 77 -
17:56 4,0 0,3 13,0 North 12,9 1040,5 77 -
18:00 3,9 0,4 4,7 NNW 9,7 1040,5 78 -
18:06 3,8 0,3 4,7 NNE 14,5 1040,5 78 -
18:10 3,7 0,2 4,7 NNW 8,0 1040,5 78 -
18:16 3,4 0,1 1,4 NNW 6,4 1040,5 79 -
18:20 3,3 0,0 1,4 NNW 4,8 1040,5 79 -
18:26 3,2 0,1 1,4 NW 4,8 1040,5 80 -
18:30 3,2 0,1 1,4 NNW 4,8 1040,5 80 -
18:36 2,9 0,0 1,4 NW 3,2 1040,9 81 -
18:40 2,8 -0,1 1,4 NW 3,2 1040,9 81 -
18:46 2,8 -0,1 1,4 NNW 3,2 1040,9 81 -
18:50 2,9 0,0 6,4 NE 6,4 1040,9 81 -
18:57 2,8 -0,1 1,4 NNW 3,2 1040,9 81 -
19:01 2,9 0,0   Calm 4,8 1040,9 81 -
19:05 2,8 -0,1 1,4 NNW 4,8 1040,9 81 -
19:11 2,7 -0,1 3,2 NNW 3,2 1040,9 82 -
19:15 2,6 -0,2 3,2 NNW 3,2 1040,9 82 -
19:21 2,5 -0,3   Calm 1,6 1040,9 82 -
19:25 2,4 -0,4 4,7 North 6,4 1040,5 82 -
19:31 2,3 -0,3 4,7 North 11,3 1040,5 83 -
19:35 2,3 -0,3 3,2 North 8,0 1040,5 83 -
19:41 2,4 -0,2 6,4 North 17,7 1040,5 83 -
19:45 2,6 -0,2 3,2 North 8,0 1040,5 82 -
19:51 2,4 -0,4 1,4 North 4,8 1040,9 82 -
19:55 2,3 -0,3   Calm 3,2 1040,9 83 -
20:01 2,2 -0,4 3,2 NNE 6,4 1040,5 83 -
20:05 2,2 -0,2   Calm 6,4 1040,5 84 -
20:11 2,1 -0,3 4,7 East 6,4 1040,5 84 -
20:15 2,3 -0,1 13,0 NNE 14,5 1040,5 84 -
20:21 2,6 0,0 16,3 NE 19,3 1040,5 83 -
20:25 2,7 -0,1 4,7 NNE 17,7 1040,5 82 -
20:31 2,7 -0,1 3,2 NE 12,9 1040,5 82 -
20:35 2,7 -0,1 9,7 NNE 16,1 1040,5 82 -
20:41 2,6 -0,2 4,7 North 12,9 1040,5 82 -
20:45 2,5 -0,3 11,1 NE 12,9 1040,5 82 -
20:51 2,4 -0,2 3,2 ENE 8,0 1040,5 83 -
20:56 2,3 -0,3 3,2 North 11,3 1040,5 83 -
21:00 2,2 -0,4 4,7 NE 16,1 1040,5 83 -
21:06 2,2 -0,4 1,4 NNE 11,3 1040,5 83 -
21:10 2,1 -0,5 13,0 NNE 12,9 1040,5 83 -
21:16 2,1 -0,3 6,4 NNE 9,7 1040,5 84 -
21:20 2,0 -0,4 4,7 NNW 14,5 1040,2 84 -
21:26 1,9 -0,5 3,2 ENE 8,0 1040,2 84 -
21:31 1,8 -0,6 6,4 NE 6,4 1040,5 84 -
21:35 1,8 -0,6 3,2 NNE 9,7 1040,5 84 -
21:41 1,7 -0,7 1,4 North 6,4 1040,5 84 -
21:45 1,7 -0,7 1,4 NNE 6,4 1040,2 84 -
21:50 1,6 -0,8 3,2 NNW 4,8 1040,2 84 -
21:56 1,6 -0,6 1,4 NE 6,4 1040,2 85 -
22:00 1,5 -0,7 3,2 NNE 9,7 1040,2 85 -
22:06 1,4 -0,8   Calm 1,6 1040,2 85 -
22:11 1,4 -0,8 6,4 ENE 9,7 1040,2 85 -
22:15 1,5 -0,7 1,4 North 8,0 1039,8 85 -
22:21 1,4 -0,8 1,4 North 6,4 1039,8 85 -
22:25 1,4 -0,8 3,2 North 6,4 1039,8 85 -
22:32 1,3 -0,9 1,4 ENE 8,0 1039,8 85 -
22:36 1,3 -0,9 1,4 NNE 6,4 1039,8 85 -
22:40 1,2 -1,0 1,4 NNE 4,8 1039,8 85 -
22:46 1,3 -0,8 3,2 NE 9,7 1039,8 86 -
22:50 1,2 -1,0   Calm 8,0 1039,8 85 -
22:55 1,2 -1,0 3,2 ENE 6,4 1039,8 85 -
23:01 1,2 -1,0 1,4 North 8,0 1040,2 85 -
23:05 1,1 -1,0 1,4 NNW 6,4 1040,2 86 -
23:11 1,1 -1,0 7,9 NE 8,0 1040,2 86 -
23:16 1,1 -1,0 3,2 NNE 8,0 1040,2 86 -
23:20 1,1 -1,0 4,7 North 9,7 1040,2 86 -
23:26 0,9 -1,2 4,7 NE 9,7 1040,2 86 -

Download your copy of this data-set  here

Our weather-data as stored at Weather Underground. Script developed by Jim McMurry. Adapted for the template by Leuven-Template.eu

You find our weather info also at:

Weather Underground

Equipment we use:

Weather-station
Davis Vue

Weather-program
Meteobridge

Weather-server
Raspberry PI 2 B+

Provider
1 and 1

Davis Vue

Meteobridge

Raspberry PI 2 B+

1 and 1